[[{"header":{"parameterUnit":"m.s-1","parameterCategory":1,"la1":30.2991,"la2":30.254,"lo1":-89.0895,"lo2":-89.0444,"dy":0.0017,"dx":0.0017,"nx":28,"ny":28,"refTime":"2025-01-23T03:00:00:Z","depth":0,"parameterNumber":2,"parameterNumberName":"U-component_of_WINDS"},"data":[0,0,0,0,0,0,0,0,0,0,0,0,0,0,0,0,0,0,0,0,0,0,0,0,0,0,0,0,0,0,0,0,0,0,0,0,0,0,0,0,0,0,0,0,0,0,0,0,0,0,0,0,0,0,0,0,0,0,-0.4011,-0.4011,0,-0.4037,-0.4037,-0.4038,-0.4004,-0.4003,-0.4001,-0.4,-0.4029,-0.4031,-0.4033,0,0,0,0,0,0,0,0,0,0,0,0,0,-0.3932,-0.3934,-0.4011,-0.4011,-0.4011,-0.4037,-0.4037,-0.4038,-0.4004,-0.4003,-0.4001,-0.4,-0.4029,-0.4031,-0.4033,0,0,0,0,0,0,0,0,0,0,0,0,0,-0.3963,-0.3934,-0.4011,-0.3998,-0.3997,-0.4037,-0.4037,-0.4038,-0.4004,-0.4002,-0.4001,-0.3999,-0.4028,-0.4031,-0.4034,-0.4089,0,0,-0.4042,-0.4044,0,0,0,0,0,0,0,0,-0.3961,-0.3966,-0.3999,-0.3999,-0.3998,-0.4015,-0.402,-0.4055,-0.4005,-0.4002,-0.4,-0.3998,-0.4026,-0.4029,-0.4038,-0.409,-0.4091,-0.4043,-0.4044,-0.4046,-0.4047,0,0,0,0,0,0,0,-0.3959,-0.3965,-0.4021,-0.4,-0.3999,-0.3991,-0.3993,-0.4027,-0.4024,-0.4002,-0.3999,-0.4003,-0.4026,-0.4036,-0.4039,-0.4092,-0.4043,-0.4045,-0.4047,-0.4048,-0.4188,-0.419,0,0,0,0,0,0,-0.3958,-0.3963,-0.402,-0.4022,-0.3974,-0.3994,-0.3996,-0.4011,-0.4024,-0.4024,-0.4004,-0.4001,-0.4032,-0.4035,-0.404,-0.4104,-0.4046,-0.4048,-0.405,-0.4187,-0.4189,-0.4191,0,0,0,0,0,0,-0.3957,-0.3964,-0.4019,-0.3992,-0.3998,-0.3997,-0.4014,-0.4013,-0.4023,-0.4026,-0.4025,-0.4015,-0.403,-0.4036,-0.4076,-0.4105,-0.405,-0.4052,-0.4184,-0.4187,-0.419,-0.4234,0,0,0,0,0,0,-0.3955,-0.3963,-0.3984,-0.3993,-0.4,-0.4055,-0.4016,-0.4015,-0.4028,-0.4024,-0.4035,-0.4036,-0.4029,-0.4072,-0.4079,-0.4108,-0.4055,-0.4182,-0.4186,-0.4189,-0.423,-0.4238,-0.4245,0,0,0,0,0,-0.3952,-0.3996,-0.3986,-0.3993,-0.4026,-0.4057,-0.4061,-0.4052,-0.403,-0.4051,-0.4053,-0.4035,-0.41,-0.4077,-0.4084,-0.4114,-0.418,-0.4184,-0.4189,-0.4227,-0.4237,-0.4245,0,0,0,0,0,0,-0.3993,-0.3997,-0.3985,-0.4034,-0.4045,-0.4051,-0.4078,-0.4063,-0.4082,-0.4078,-0.4066,-0.4069,-0.4112,-0.4117,-0.4091,-0.4167,-0.4136,-0.4143,-0.4163,-0.4172,-0.4179,-0.4177,-0.4057,0,0,0,0,0,-0.4007,-0.4032,-0.4035,-0.4077,-0.4083,-0.4079,-0.4093,-0.4085,-0.4096,-0.4101,-0.4106,-0.4118,-0.4141,-0.4157,-0.4178,-0.423,-0.4232,-0.4254,-0.4262,-0.4268,-0.4274,-0.4301,-0.431,-0.4206,-0.4206,-0.4206,0,0,-0.4038,-0.4043,-0.406,-0.4085,-0.4093,-0.4119,-0.4084,-0.4113,-0.4132,-0.4106,-0.4144,-0.4148,-0.4161,-0.4207,-0.4228,-0.4213,-0.4303,-0.4274,-0.4279,-0.4281,-0.4306,-0.4316,-0.4325,-0.4209,-0.4208,-0.4208,0,0,-0.4106,-0.4113,-0.4148,-0.4157,-0.4169,-0.4165,-0.4174,-0.4182,-0.4183,-0.4221,-0.4202,-0.4224,-0.4264,-0.4274,-0.4284,-0.4355,-0.4339,-0.4362,-0.4402,-0.4428,-0.4436,-0.4443,-0.4468,-0.4477,-0.4368,-0.4368,-0.4368,0,-0.4143,-0.418,-0.4169,-0.4199,-0.421,-0.4186,-0.4222,-0.4231,-0.425,-0.4258,-0.4241,-0.429,-0.4297,-0.4345,-0.4361,-0.4371,-0.438,-0.4361,-0.4436,-0.4443,-0.445,-0.4473,-0.4482,-0.437,-0.437,-0.437,-0.437,0,-0.4224,-0.4251,-0.4278,-0.4295,-0.431,-0.4343,-0.4336,-0.4352,-0.4343,-0.4341,-0.438,-0.4387,-0.4409,-0.442,-0.4411,-0.4466,-0.4456,-0.4437,-0.4406,-0.4462,-0.4484,-0.4493,-0.4374,-0.4373,-0.4372,-0.4372,0,0,-0.4321,-0.433,-0.434,-0.4347,-0.4358,-0.4378,-0.4409,-0.443,-0.4444,-0.4457,-0.4483,-0.4517,-0.4499,-0.451,-0.4502,-0.4526,-0.458,-0.4504,-0.4504,-0.4517,-0.464,-0.4654,-0.4665,-0.4569,-0.4571,-0.4572,-0.4639,0,-0.4389,-0.4442,-0.4432,-0.4485,-0.4508,-0.4485,-0.4513,-0.4522,-0.4521,-0.4542,-0.4541,-0.4565,-0.454,-0.4546,-0.4568,-0.4569,-0.4604,-0.4564,-0.4593,-0.4595,-0.4591,-0.4676,-0.4691,-0.4754,-0.4647,-0.4649,-0.465,0,-0.4476,-0.4491,-0.4546,-0.4551,-0.4561,-0.4586,-0.4603,-0.4622,-0.4632,-0.463,-0.4642,-0.4629,-0.466,-0.4628,-0.4671,-0.4643,-0.4655,-0.4657,-0.4659,-0.4661,-0.4626,-0.4681,-0.4774,-0.4783,-0.4663,-0.4662,-0.4661,0,-0.454,-0.4574,-0.4611,-0.4618,-0.4625,-0.4643,-0.4647,-0.4655,-0.4668,-0.4683,-0.4691,-0.471,-0.472,-0.4735,-0.4728,-0.4705,-0.4771,-0.4739,-0.477,-0.477,-0.4786,-0.4785,-0.4881,-0.4793,-0.4793,-0.4793,-0.4792,0,-0.4617,-0.4652,-0.464,-0.4662,-0.47,-0.4687,-0.4725,-0.4726,-0.4733,-0.4756,-0.4737,-0.4759,-0.4747,-0.4768,-0.4762,-0.4798,-0.4803,-0.4802,-0.48,-0.4803,-0.4804,-0.4811,-0.4806,-0.4795,-0.4795,-0.4794,-0.4794,0,-0.4696,-0.4689,-0.4727,-0.4731,-0.4732,-0.476,-0.4763,-0.4784,-0.4781,-0.481,-0.4816,-0.4812,-0.4835,-0.4828,-0.4854,-0.485,-0.4895,-0.4887,-0.4891,-0.4889,-0.4921,-0.4918,-0.5026,-0.5039,-0.4942,-0.4943,-0.4944,0,-0.4745,-0.4771,-0.4777,-0.479,-0.4795,-0.4817,-0.4829,-0.4817,-0.4831,-0.4843,-0.4863,-0.4884,-0.49,-0.4938,-0.4938,-0.4957,-0.495,-0.4986,-0.4953,-0.4955,-0.495,-0.4948,-0.4951,-0.4993,-0.4994,-0.4995,-0.4996,0,-0.4834,-0.4829,-0.4847,-0.4864,-0.4879,-0.4892,-0.4903,-0.4915,-0.4904,-0.492,-0.4943,-0.4956,-0.4981,-0.5002,-0.5019,-0.5023,-0.5008,-0.5006,-0.5014,-0.5018,-0.5019,-0.5019,-0.4909,-0.5004,-0.5003,-0.5003,-0.5002,-0.5002,-0.4899,-0.4921,-0.4927,-0.4948,-0.4955,-0.4965,-0.4985,-0.4984,-0.5002,-0.5021,-0.5013,-0.504,-0.5048,-0.5069,-0.5075,-0.5095,-0.5082,-0.5094,-0.5097,-0.51,-0.5104,-0.5016,-0.5099,-0.5098,-0.5098,-0.5098,-0.5098,0,-0.4987,-0.499,-0.5008,-0.5024,-0.504,-0.5023,-0.5034,-0.5049,-0.5072,-0.508,-0.5096,-0.5122,-0.5142,-0.5142,-0.5161,-0.5177,-0.517,-0.5182,-0.5181,-0.5182,-0.5115,-0.5106,-0.5187,-0.5187,-0.5187,-0.5187,-0.5187,-0.5187,-0.5034,-0.5069,-0.5064,-0.5102,-0.5105,-0.513,-0.5137,-0.5147,-0.5153,-0.5182,-0.5199,-0.5198,-0.5204,-0.5222,-0.524,-0.5239,-0.5247,-0.5261,-0.5258,-0.5196,-0.5187,-0.5179,-0.517,-0.5263,-0.5263,-0.5323,-0.5324,-0.5324]},{"header":{"parameterUnit":"m.s-1","parameterCategory":1,"la1":30.2991,"la2":30.254,"lo1":-89.0895,"lo2":-89.0444,"dy":0.0017,"dx":0.0017,"nx":28,"ny":28,"refTime":"2025-01-23T03:00:00:Z","depth":0,"parameterNumber":3,"parameterNumberName":"V-component_of_WINDS"},"data":[0,0,0,0,0,0,0,0,0,0,0,0,0,0,0,0,0,0,0,0,0,0,0,0,0,0,0,0,0,0,0,0,0,0,0,0,0,0,0,0,0,0,0,0,0,0,0,0,0,0,0,0,0,0,0,0,0,0,-3.8493,-3.8494,0,-3.8554,-3.8554,-3.8555,-3.8483,-3.848,-3.8478,-3.8475,-3.8534,-3.8538,-3.8542,0,0,0,0,0,0,0,0,0,0,0,0,0,-3.8313,-3.8317,-3.8493,-3.8494,-3.8495,-3.8554,-3.8554,-3.8555,-3.8483,-3.848,-3.8477,-3.8474,-3.8532,-3.8537,-3.8542,0,0,0,0,0,0,0,0,0,0,0,0,0,-3.8384,-3.8318,-3.8493,-3.8466,-3.8464,-3.8553,-3.8554,-3.8555,-3.8484,-3.848,-3.8476,-3.8472,-3.8531,-3.8537,-3.8543,-3.866,0,0,-3.8561,-3.8564,0,0,0,0,0,0,0,0,-3.838,-3.8391,-3.8469,-3.8468,-3.8466,-3.8507,-3.8512,-3.859,-3.8485,-3.8476,-3.8475,-3.847,-3.8528,-3.8534,-3.8554,-3.8663,-3.8666,-3.8562,-3.8565,-3.8568,-3.857,0,0,0,0,0,0,0,-3.8375,-3.8388,-3.8517,-3.8471,-3.8469,-3.845,-3.8456,-3.8527,-3.8524,-3.8477,-3.8472,-3.848,-3.8526,-3.8548,-3.8555,-3.8666,-3.8562,-3.8567,-3.8571,-3.8573,-3.8875,-3.8879,0,0,0,0,0,0,-3.8374,-3.8384,-3.8515,-3.8519,-3.8413,-3.8457,-3.8463,-3.8498,-3.8523,-3.8523,-3.8483,-3.8477,-3.854,-3.8548,-3.8556,-3.8696,-3.8568,-3.8574,-3.8577,-3.8871,-3.8876,-3.8881,0,0,0,0,0,0,-3.8371,-3.8386,-3.8513,-3.845,-3.8465,-3.8464,-3.8504,-3.8501,-3.8523,-3.8528,-3.8527,-3.8507,-3.8537,-3.8548,-3.8635,-3.8697,-3.8576,-3.8582,-3.8866,-3.8872,-3.8879,-3.8976,0,0,0,0,0,0,-3.8366,-3.8386,-3.8431,-3.8452,-3.8469,-3.8592,-3.8507,-3.8505,-3.8534,-3.8526,-3.8549,-3.8549,-3.8535,-3.8627,-3.8641,-3.8703,-3.8587,-3.886,-3.8869,-3.8876,-3.8967,-3.8985,-3.9001,0,0,0,0,0,-3.8359,-3.8455,-3.8434,-3.845,-3.8525,-3.8595,-3.8605,-3.8587,-3.8539,-3.8584,-3.8588,-3.8549,-3.8688,-3.8636,-3.8652,-3.8717,-3.8856,-3.8866,-3.8876,-3.896,-3.8982,-3.9,0,0,0,0,0,0,-3.844,-3.8457,-3.8434,-3.8539,-3.8567,-3.8583,-3.8639,-3.861,-3.8651,-3.8641,-3.8616,-3.8622,-3.8715,-3.8724,-3.8666,-3.8832,-3.8764,-3.8778,-3.8823,-3.8843,-3.886,-3.8855,-3.8592,0,0,0,0,0,-3.8471,-3.8527,-3.8539,-3.8631,-3.8646,-3.8641,-3.867,-3.8654,-3.8681,-3.8692,-3.8701,-3.8728,-3.8778,-3.8811,-3.8857,-3.8968,-3.8972,-3.9021,-3.9037,-3.9051,-3.9063,-3.9122,-3.9144,-3.8913,-3.8913,-3.8913,0,0,-3.8533,-3.855,-3.8587,-3.8647,-3.8667,-3.8725,-3.8651,-3.8715,-3.8758,-3.8701,-3.8785,-3.8793,-3.8821,-3.8921,-3.8965,-3.8932,-3.9127,-3.9063,-3.9074,-3.9079,-3.9135,-3.9157,-3.9176,-3.892,-3.8919,-3.8918,0,0,-3.8678,-3.8696,-3.8775,-3.8796,-3.8827,-3.8823,-3.8842,-3.8863,-3.8867,-3.895,-3.8909,-3.8959,-3.9045,-3.9067,-3.9089,-3.9243,-3.9209,-3.9259,-3.9345,-3.9404,-3.9422,-3.9438,-3.9493,-3.9513,-3.927,-3.9271,-3.9271,0,-3.8752,-3.8839,-3.8819,-3.8887,-3.8915,-3.8867,-3.8947,-3.8968,-3.9012,-3.9031,-3.8993,-3.9101,-3.9116,-3.9221,-3.9259,-3.9278,-3.9299,-3.9256,-3.9421,-3.9437,-3.9451,-3.9503,-3.9524,-3.9277,-3.9276,-3.9275,-3.9275,0,-3.8928,-3.8989,-3.9049,-3.9094,-3.9128,-3.9202,-3.9192,-3.9229,-3.921,-3.921,-3.9296,-3.9313,-3.9362,-3.9386,-3.9367,-3.9488,-3.9466,-3.9425,-3.9356,-3.948,-3.9528,-3.9548,-3.9285,-3.9283,-3.9281,-3.928,0,0,-3.9125,-3.9159,-3.9181,-3.9201,-3.9231,-3.9278,-3.9349,-3.9398,-3.943,-3.9462,-3.952,-3.9595,-3.9557,-3.9583,-3.9566,-3.9618,-3.9739,-3.957,-3.957,-3.9601,-3.9873,-3.9904,-3.9927,-3.9716,-3.972,-3.9723,-3.9871,0,-3.927,-3.9394,-3.9378,-3.9497,-3.9553,-3.9509,-3.9571,-3.9596,-3.9598,-3.9645,-3.9646,-3.97,-3.9646,-3.9661,-3.971,-3.9714,-3.9793,-3.9703,-3.977,-3.9773,-3.9764,-3.9953,-3.9985,-4.0124,-3.9889,-3.9893,-3.9895,0,-3.9455,-3.9495,-3.962,-3.9643,-3.9666,-3.9722,-3.9765,-3.9811,-3.9839,-3.9836,-3.9866,-3.984,-3.991,-3.9841,-3.9937,-3.9876,-3.9903,-3.9909,-3.9913,-3.9919,-3.9841,-3.9963,-4.0168,-4.0189,-3.9925,-3.9922,-3.992,0,-3.9586,-3.9671,-3.9757,-3.9775,-3.9804,-3.9844,-3.9858,-3.9881,-3.9912,-3.995,-3.9969,-4.0015,-4.0039,-4.0075,-4.0062,-4.0012,-4.0161,-4.009,-4.0161,-4.0161,-4.0194,-4.0192,-4.0406,-4.0211,-4.0211,-4.0211,-4.021,0,-3.975,-3.9828,-3.9816,-3.9869,-3.9955,-3.9936,-4.0022,-4.003,-4.0051,-4.0104,-4.0068,-4.0118,-4.0099,-4.0147,-4.0138,-4.0219,-4.023,-4.023,-4.0227,-4.0234,-4.0234,-4.025,-4.024,-4.0216,-4.0215,-4.0214,-4.0213,0,-3.9911,-3.9906,-3.9997,-4.0017,-4.0024,-4.0086,-4.0103,-4.0152,-4.0151,-4.0219,-4.0233,-4.0232,-4.0288,-4.0279,-4.034,-4.0334,-4.0435,-4.042,-4.0427,-4.0423,-4.0494,-4.0488,-4.0726,-4.0757,-4.0543,-4.0545,-4.0546,0,-4.0015,-4.0075,-4.0101,-4.0135,-4.0152,-4.0206,-4.0238,-4.0221,-4.0255,-4.0291,-4.0336,-4.0389,-4.043,-4.0521,-4.0525,-4.0572,-4.0557,-4.0637,-4.0564,-4.0569,-4.0558,-4.0555,-4.0561,-4.0652,-4.0654,-4.0656,-4.0658,0,-4.0202,-4.0197,-4.0244,-4.0291,-4.033,-4.0366,-4.0398,-4.0427,-4.0414,-4.0454,-4.0511,-4.0543,-4.0606,-4.0659,-4.0703,-4.0715,-4.0685,-4.0681,-4.07,-4.0708,-4.0709,-4.071,-4.0467,-4.0676,-4.0674,-4.0673,-4.0672,-4.0671,-4.0338,-4.0388,-4.0416,-4.047,-4.0492,-4.0524,-4.0571,-4.0577,-4.0625,-4.0676,-4.0663,-4.0728,-4.0753,-4.0809,-4.0827,-4.0877,-4.0847,-4.0874,-4.0881,-4.0888,-4.0897,-4.0702,-4.0885,-4.0884,-4.0884,-4.0883,-4.0883,0,-4.0522,-4.0538,-4.0588,-4.0635,-4.0677,-4.0646,-4.068,-4.0717,-4.0775,-4.0802,-4.0844,-4.091,-4.0961,-4.097,-4.1018,-4.1056,-4.1043,-4.1069,-4.1066,-4.107,-4.0921,-4.09,-4.1079,-4.1079,-4.1079,-4.1079,-4.1079,-4.1079,-4.0623,-4.0708,-4.0706,-4.0802,-4.0816,-4.088,-4.0903,-4.0931,-4.0953,-4.1028,-4.1071,-4.1077,-4.1096,-4.1146,-4.1191,-4.1192,-4.1212,-4.1244,-4.1239,-4.11,-4.108,-4.1062,-4.1042,-4.1248,-4.1248,-4.1384,-4.1385,-4.1386]}]]